W1HS Weather Reports


Display with metric or nautical units.
time (UTC)temp
F
wind
direction
speed
MPH
gust
MPH
rain 1hr
in
rain 24hr
in
rain mn
in
humidity
%
barometer
mb
20260502151821 47 225 3.0 5.0 0.00 0.14 0.14 92 991.0
20260502150819 46 203 2.0 4.0 0.00 0.14 0.14 92 991.0
20260502122819 43 0.0 0.0 0.00 0.14 0.14 95 991.6
20260502121819 43 0.0 0.0 0.00 0.14 0.14 95 991.6
20260502120819 43 0.0 0.0 0.00 0.14 0.14 95 991.6
20260502115819 42 0.0 0.0 0.00 0.14 0.14 95 991.6
20260502114819 42 0.0 0.0 0.00 0.14 0.14 94 991.6
20260502113819 42 0.0 0.0 0.00 0.14 0.14 94 991.7
20260502112819 42 0.0 0.0 0.00 0.14 0.14 94 991.7
20260502111821 42 0.0 0.0 0.00 0.14 0.14 94 991.8
20260502110819 42 0.0 0.0 0.00 0.14 0.14 94 991.8
20260502105819 42 0.0 0.0 0.00 0.14 0.14 94 991.7
20260502104819 42 0.0 0.0 0.00 0.14 0.14 94 991.4
20260502103819 41 0.0 0.0 0.00 0.14 0.14 94 991.3
20260502102819 41 0.0 0.0 0.00 0.14 0.14 94 991.2
20260502101819 41 0.0 0.0 0.00 0.14 0.14 94 991.1
20260502100819 41 0.0 0.0 0.00 0.14 0.14 94 991.1
20260502090818 41 0.0 0.0 0.05 0.14 0.14 93 991.4
20260502070821 41 0.0 1.0 0.01 0.09 0.08 91 991.7
20260502065818 41 0.0 0.0 0.02 0.09 0.08 91 991.9
20260502064818 41 0.0 1.0 0.05 0.09 0.08 91 991.8
20260502063819 41 0.0 0.0 0.06 0.09 0.08 90 991.7
20260502062819 41 68 1.0 2.0 0.07 0.09 0.08 90 992.1
20260502061818 42 0.0 0.0 0.08 0.09 0.08 90 992.2
20260502060818 42 0.0 0.0 0.07 0.08 0.07 89 992.6
20260502055818 42 0.0 0.0 0.06 0.07 0.06 88 992.8
20260502054818 42 0.0 0.0 0.03 0.04 0.03 87 992.6
20260502053818 43 45 1.0 2.0 0.02 0.03 0.02 85 992.6
20260502052818 43 0.0 1.0 0.01 0.02 0.01 82 992.3
20260502051818 44 0.0 1.0 0.00 0.01 0.00 77 992.3
20260502050818 44 0.0 0.0 0.00 0.01 0.00 76 992.1
20260502045818 45 0.0 0.0 0.00 0.01 0.00 73 992.2
20260502044820 46 0.0 0.0 0.00 0.01 0.00 68 992.0
20260502043818 46 0.0 1.0 0.00 0.01 0.00 66 991.8
20260502042820 47 0.0 0.0 0.00 0.01 0.00 63 991.9
20260502041820 47 0.0 0.0 0.00 0.01 0.00 61 991.7
20260502040818 47 0.0 0.0 0.00 0.01 0.00 64 991.8
20260502035818 47 0.0 0.0 0.00 0.01 0.01 59 991.5
20260502034818 47 0.0 0.0 0.00 0.01 0.01 55 991.5
20260502033818 48 0.0 0.0 0.00 0.01 0.01 55 991.4
20260502032818 48 0.0 0.0 0.00 0.01 0.01 55 991.3
20260502031818 48 0.0 0.0 0.00 0.01 0.01 54 991.4
20260502030818 48 0.0 1.0 0.00 0.02 0.01 55 991.5
20260502025818 47 0.0 0.0 0.00 0.02 0.01 51 991.3
20260502024818 48 0.0 0.0 0.00 0.02 0.01 52 991.4
20260502023818 48 0.0 1.0 0.00 0.02 0.01 51 991.5
20260502022818 48 0.0 0.0 0.00 0.02 0.01 49 991.4
20260502021818 48 0.0 0.0 0.00 0.02 0.01 49 991.3
20260502020820 48 0.0 0.0 0.00 0.03 0.01 48 991.3
20260502015818 49 0.0 0.0 0.00 0.05 0.01 48 991.4
20260502014818 48 0.0 0.0 0.00 0.07 0.01 48 991.4
20260502013818 48 0.0 0.0 0.00 0.09 0.01 49 991.5
20260502012818 49 315 3.0 4.0 0.00 0.11 0.01 50 991.4
20260502011820 49 0.0 0.0 0.00 0.11 0.01 47 991.4
20260502010818 50 0.0 0.0 0.00 0.12 0.01 46 991.2
20260502005818 50 0.0 0.0 0.00 0.12 0.01 46 991.1
20260502004818 50 0.0 0.0 0.00 0.12 0.01 45 991.0
20260502003818 50 0.0 0.0 0.00 0.12 0.01 45 990.9
20260502002818 51 0.0 0.0 0.00 0.13 0.01 46 990.8
20260502001949 51 0.0 0.0 0.00 0.13 0.01 45 990.8
20260502001318 51 0.0 0.0 0.00 0.14 0.01 42 990.5
20260502000318 51 0.0 0.0 0.00 0.14 0.01 43 990.5
20260501235318 52 0.0 0.0 0.00 0.14 0.01 43 990.4
20260501234318 53 0.0 0.0 0.00 0.14 0.01 42 990.3
20260501233318 54 0.0 0.0 0.00 0.14 0.01 40 990.2
20260501232318 55 0.0 0.0 0.00 0.14 0.01 38 990.1
20260501231318 55 0.0 0.0 0.00 0.14 0.01 39 989.8
20260501230318 55 0.0 2.0 0.00 0.14 0.01 40 989.8
20260501225318 56 0.0 0.0 0.00 0.14 0.01 38 989.8
20260501224318 56 315 1.0 3.0 0.00 0.14 0.01 36 989.8
20260501223318 57 315 1.0 5.0 0.00 0.14 0.01 38 989.8
20260501222320 57 293 1.0 2.0 0.00 0.14 0.01 36 989.7
20260501221318 57 0.0 2.0 0.00 0.14 0.01 37 989.8
20260501220320 56 293 3.0 5.0 0.00 0.14 0.01 35 989.8
20260501215318 55 0.0 1.0 0.00 0.14 0.01 42 989.8
20260501214318 56 315 1.0 3.0 0.00 0.14 0.01 39 990.0
20260501213318 57 0 2.0 5.0 0.00 0.14 0.01 38 989.8
20260501212320 56 270 3.0 6.0 0.00 0.14 0.01 37 989.9
20260501211322 56 23 5.0 7.0 0.00 0.14 0.01 36 989.7
20260501210320 56 270 1.0 3.0 0.00 0.14 0.01 39 989.7
20260501205320 57 113 2.0 3.0 0.00 0.14 0.01 39 989.5
20260501204319 56 293 8.0 12.0 0.00 0.14 0.01 38 989.7
20260501203319 56 293 9.0 13.0 0.00 0.14 0.01 39 989.6
20260501202322 56 23 5.0 8.0 0.00 0.14 0.01 42 989.6
20260501201319 56 270 9.0 14.0 0.00 0.14 0.01 39 989.7
20260501200322 55 293 3.0 5.0 0.00 0.14 0.01 40 989.8
20260501195319 56 315 4.0 9.0 0.00 0.14 0.01 41 989.9
20260501194319 56 270 4.0 7.0 0.00 0.14 0.01 39 989.9
20260501193319 56 338 7.0 9.0 0.00 0.14 0.01 39 989.9
20260501192320 56 270 5.0 8.0 0.00 0.14 0.01 44 990.0
20260501191319 56 248 4.0 10.0 0.00 0.15 0.01 41 990.1
20260501190319 56 293 5.0 8.0 0.00 0.15 0.01 41 990.3
20260501185319 55 293 7.0 9.0 0.00 0.15 0.01 41 990.3
20260501184319 54 293 5.0 8.0 0.00 0.15 0.01 38 990.4
20260501183320 55 270 10.0 14.0 0.00 0.15 0.01 40 990.4
20260501182319 56 270 10.0 15.0 0.00 0.15 0.01 39 990.2
20260501181321 55 315 8.0 11.0 0.00 0.15 0.01 44 990.4
20260501180319 55 248 10.0 16.0 0.00 0.15 0.01 41 990.5
20260501175319 54 270 11.0 17.0 0.00 0.15 0.01 41 990.5
20260501174321 54 270 8.0 13.0 0.00 0.15 0.01 45 990.5
20260501173320 53 270 8.0 13.0 0.00 0.15 0.01 45 990.4
20260501172319 53 293 10.0 15.0 0.00 0.15 0.01 46 990.5
20260501171319 53 338 9.0 19.0 0.00 0.15 0.01 47 990.4
20260501170319 52 293 6.0 9.0 0.00 0.16 0.01 49 990.4
20260501165319 52 293 8.0 10.0 0.00 0.16 0.01 50 990.4
20260501164319 52 315 6.0 10.0 0.00 0.16 0.01 52 990.5
20260501163319 51 270 9.0 12.0 0.00 0.16 0.01 52 990.6
20260501162319 50 293 3.0 6.0 0.00 0.16 0.01 56 990.5
20260501161319 51 293 10.0 14.0 0.00 0.16 0.01 54 990.8
20260501160319 50 315 7.0 10.0 0.00 0.16 0.01 56 990.9
20260501155320 50 293 9.0 12.0 0.00 0.16 0.01 60 990.9
20260501154319 49 270 11.0 15.0 0.00 0.17 0.01 57 990.8
20260501153319 49 270 9.0 12.0 0.00 0.17 0.01 62 991.0